Probability
0 0 0 0 0 0 0 0 0 0 0 0 0 0 0 0 0 0 0 0 0 0 0 0 0 1 2 4 8 13 16 15 11 5 1 0 0 0 0 0 0 0 0 0
0 0 0 0 0 0 0 0 0 0 0 0 0 0 0 0 0 0 0 0 0 0 0 0 0 0 1 2 5 8 12 12 9 5 1 0 0 0 0 0 0 0 0 0
0 0 0 0 0 0 0 0 0 0 0 0 0 0 0 0 0 0 0 0 0 0 0 0 0 0 0 0 1 3 4 5 4 2 1 0 0 0 0 0 0 0 0 0
0 0 0 0 0 0 0 0 0 0 0 0 0 0 0 0 0 0 0 0 0 0 0 0 0 0 0 0 0 0 0 0 0 0 0 0 0 0 0 0 0 0 0 0
0 0 0 0 0 0 0 0 0 0 0 0 0 0 0 0 0 0 0 0 0 0 0 0 0 0 0 0 0 0 0 0 0 0 0 0 0 0 0 0 0 0 0 0
0 0 0 0 0 0 0 0 0 0 0 0 0 0 0 0 0 0 0 0 0 0 0 0 0 0 0 0 0 0 0 0 0 0 0 0 0 0 0 0 0 0 0 0
0 0 0 0 0 0 0 0 0 0 0 0 0 0 0 0 0 0 0 0 0 0 0 0 0 0 0 0 0 0 0 0 0 0 0 0 0 0 0 0 0 0 0 0
0 0 0 0 0 0 0 0 0 0 0 0 0 0 0 0 0 0 0 0 0 0 0 0 0 0 0 0 0 0 0 0 0 0 0 0 0 0 0 0 0 0 0 0
0 0 0 0 0 0 0 0 0 0 0 0 0 0 0 0 0 0 0 0 0 0 0 0 0 0 0 0 0 0 0 0 0 0 0 0 0 0 0 0 0 0 0 0
0 0 0 0 0 0 0 0 0 0 0 0 0 0 0 0 0 0 0 0 0 0 0 0 0 0 0 0 0 0 0 0 0 0 0 0 0 0 0 0 0 0 0 0
0 0 0 0 0 0 0 0 0 0 0 0 0 0 0 0 0 0 0 0 0 0 0 0 0 0 0 0 0 0 0 0 0 0 0 0 0 0 0 0 0 0 0 0
0 0 0 0 0 0 0 0 0 0 0 0 0 0 0 0 0 0 0 0 0 0 0 0 0 0 0 0 0 0 0 0 0 0 0 0 0 0 0 0 0 0 0 0
0 0 0 0 0 0 0 0 0 0 0 0 0 0 0 0 0 0 0 0 0 0 0 0 0 0 0 0 0 0 0 0 0 0 0 0 0 0 0 0 0 0 0 0
0 0 0 0 0 0 0 0 0 0 0 0 0 0 0 0 0 0 0 0 0 0 0 0 0 0 0 0 0 0 0 0 0 0 0 0 0 0 0 0 0 0 0 0
0 0 0 0 0 0 0 0 0 0 0 0 0 0 0 0 0 0 0 0 0 0 0 0 0 0 0 0 0 0 0 0 0 0 0 0 0 0 0 0 0 0 0 0
0 0 0 0 0 0 0 0 0 0 0 0 0 0 0 0 0 0 0 0 0 0 0 0 0 0 0 0 0 0 0 0 0 0 0 0 0 0 0 0 0 0 0 0
0 0 0 0 0 0 0 0 0 0 0 0 0 0 0 0 0 0 0 0 0 0 0 0 0 0 0 0 0 0 0 0 0 0 0 0 0 0 0 0 0 0 0 0
0 0 0 0 0 0 0 0 0 0 0 0 0 0 0 0 0 0 0 0 0 0 0 0 0 0 0 0 0 0 0 0 0 0 0 0 0 0 0 0 0 0 0 0
0 0 0 0 0 0 0 0 0 0 0 0 0 0 0 0 0 0 0 0 0 0 0 0 0 0 0 0 0 0 0 0 0 0 0 0 0 0 0 0 0 0 0 0
0 0 0 0 0 0 0 0 0 0 0 0 0 0 0 0 0 0 0 0 0 0 0 0 0 0 0 0 0 0 0 0 0 0 0 0 0 0 0 0 0 0 0 0
0 0 0 0 0 0 0 0 0 0 0 0 0 0 0 0 0 0 0 0 0 0 0 0 0 0 0 0 0 0 0 0 0 0 0 0 0 0 0 0 0 0 0 0
0 0 0 0 0 0 0 0 0 0 0 0 0 0 0 0 0 0 0 0 0 0 0 0 0 0 0 0 0 0 0 0 0 0 0 0 0 0 0 0 0 0 0 0
0 0 0 0 0 0 0 0 0 0 0 0 0 0 0 0 0 0 0 0 0 0 0 0 0 0 0 0 0 0 0 0 0 0 0 0 0 0 0 0 0 0 0 0
0 0 0 0 0 0 0 0 0 0 0 0 0 0 0 0 0 0 0 0 0 0 0 0 0 0 0 0 0 0 0 0 0 0 0 0 0 0 0 0 0 0 0 0
0 0 0 0 0 0 0 0 0 0 0 0 0 0 0 0 0 0 0 0 0 0 0 0 0 0 0 0 0 0 0 0 0 0 0 0 0 0 0 0 0 0 0 0
0 0 0 0 0 0 0 0 0 0 0 0 0 0 0 0 0 0 0 0 0 0 0 0 0 0 0 0 0 0 0 0 0 0 0 0 0 0 0 0 0 0 0 0
0 0 0 0 0 0 0 0 0 0 0 0 0 0 0 0 0 0 0 0 0 0 0 0 0 0 0 0 0 0 0 0 0 0 0 0 0 0 0 0 0 0 0 0
Wind_Speed
4 11 13 14 15 15 15 10 8 6 6 13 17 17 16 16 15 14 13 12 9 6 5 5 5 4 2 1 1 4 5 5 4 4 4 4 5 5 6 5 6 6 6 5
4 10 14 16 18 15 12 10 8 6 6 12 15 14 15 16 17 15 13 13 12 11 12 12 10 9 9 8 5 3 3 3 2 3 3 3 4 5 4 5 5 4 5 5
3 2 5 11 12 10 7 9 7 7 8 14 17 19 17 14 15 13 11 10 10 10 10 10 10 10 11 10 10 10 9 7 5 3 3 3 1 0 2 3 3 4 5 5
2 5 6 3 5 5 4 7 10 9 11 13 16 17 10 7 12 13 10 8 8 7 9 8 8 9 8 9 9 9 8 8 7 7 6 6 5 4 3 1 2 3 4 5
3 4 2 3 4 3 3 2 9 11 13 14 17 11 5 10 16 11 6 5 5 5 6 7 7 7 8 7 7 7 7 6 6 6 5 5 5 4 3 2 2 2 2 3
4 4 2 3 6 4 2 1 7 10 12 14 14 9 9 17 19 13 6 4 5 5 6 6 5 6 7 6 6 6 5 4 4 5 5 5 5 4 3 3 3 3 2 2
4 3 1 3 6 4 2 4 8 7 9 9 7 6 14 18 15 10 4 3 5 5 4 3 3 6 6 5 4 3 3 4 4 4 4 4 5 4 4 4 4 4 4 4
2 2 3 3 3 2 3 4 5 6 6 8 10 13 13 14 13 10 3 2 3 3 3 3 3 4 5 4 3 2 3 4 4 5 5 5 5 5 5 5 5 5 5 5
4 4 3 1 2 3 3 3 4 5 8 9 11 11 13 13 12 8 2 1 1 2 3 3 3 2 3 4 2 2 3 3 3 4 4 5 5 5 5 5 4 4 4 4
1 1 3 3 3 3 3 5 7 8 9 8 8 11 12 11 10 8 4 2 1 1 2 3 3 2 1 3 2 3 3 1 1 2 2 4 4 4 4 4 4 4 5 5
2 2 2 3 4 4 4 6 7 7 6 7 8 9 9 9 9 7 5 3 1 1 2 3 2 2 2 2 3 3 2 1 0 0 0 1 2 3 3 3 4 3 3 4
6 6 4 5 5 4 4 5 6 6 6 7 6 7 8 8 7 7 6 4 3 4 4 3 2 3 3 1 3 3 2 1 1 1 1 1 0 1 3 3 5 6 6 5
7 7 6 5 4 3 3 4 5 5 5 6 7 6 7 7 7 7 7 5 5 6 6 5 4 5 5 3 2 3 3 2 1 1 1 1 1 1 1 1 2 3 5 6
7 6 3 2 2 2 2 3 4 5 5 6 6 6 7 7 7 8 9 8 7 7 7 6 5 6 6 4 3 3 3 2 2 1 1 1 1 0 0 0 1 2 3 5
7 7 6 3 1 1 1 2 4 5 6 6 5 6 8 8 9 9 9 9 8 6 6 6 6 6 5 5 5 5 4 2 1 0 1 1 1 1 2 1 1 1 3 4
7 6 5 4 2 1 2 2 3 5 6 6 6 7 7 7 8 8 8 8 8 8 7 6 6 6 5 6 6 4 4 5 3 1 1 1 1 2 2 2 2 2 3 3
9 7 5 3 1 1 1 2 3 4 5 6 7 7 7 8 8 8 10 10 9 8 7 5 6 4 5 7 6 4 4 3 3 2 2 2 2 2 2 2 2 2 2 3
9 9 8 6 4 2 2 3 4 5 5 6 7 6 7 8 9 9 10 10 9 9 7 6 5 3 5 6 5 4 4 3 2 2 2 2 2 2 3 3 2 2 2 3
9 9 8 5 4 3 3 3 4 5 6 5 5 6 7 7 8 9 8 8 8 9 10 10 8 3 5 6 6 4 5 4 3 2 2 3 3 2 3 3 2 2 2 2
9 8 7 4 3 3 3 3 4 5 5 4 4 6 7 8 8 9 8 6 5 6 9 10 4 2 4 5 7 4 5 5 4 3 3 3 3 3 3 3 3 2 2 2
10 8 7 5 4 4 3 3 3 4 5 4 4 5 6 7 7 7 6 6 7 9 9 8 3 1 3 4 6 4 5 5 4 4 4 4 3 3 3 3 3 3 2 2
8 8 7 6 5 4 3 3 3 4 4 4 4 5 6 7 7 7 6 5 7 12 8 4 3 2 4 6 4 4 5 5 4 4 4 4 4 4 3 3 3 3 3 3
8 7 7 6 6 5 3 3 3 3 3 4 4 5 5 5 4 5 7 6 7 11 8 4 6 5 8 5 4 5 5 5 4 4 4 4 4 4 4 4 3 3 3 3
8 7 7 6 5 4 4 4 4 3 4 4 4 5 4 4 5 4 5 10 12 12 6 7 8 4 8 4 4 4 5 4 4 4 4 4 4 4 4 4 3 3 3 4
8 7 7 6 6 5 5 5 3 3 3 3 5 5 4 3 4 6 7 8 11 10 6 7 6 4 5 3 4 5 5 5 5 5 4 4 5 5 4 4 4 4 3 3
8 6 6 6 6 5 4 4 3 3 3 3 4 4 4 4 5 5 5 7 9 9 6 4 3 2 3 3 4 5 5 5 5 5 5 5 5 5 5 4 5 4 3 3
6 5 4 4 4 4 4 4 4 4 4 4 4 4 4 5 5 6 6 6 6 6 5 4 3 3 3 3 3 4 5 5 5 5 5 5 5 5 5 6 5 4 4 4
Wind_Direction
53 86 74 49 26 33 43 44 55 49 24 357 345 340 340 350 357 7 10 19 26 27 20 13 9 5 358 297 208 169 163 175 203 232 242 236 227 222 220 214 212 207 211 217
62 99 77 49 24 20 31 32 39 37 19 345 337 342 351 0 7 12 17 19 23 33 41 43 42 41 41 37 41 89 131 172 214 243 255 253 236 221 217 223 228 217 215 215
10 20 59 34 1 1 17 36 19 19 350 339 346 346 342 351 1 1 7 15 25 36 45 48 48 49 48 42 47 53 53 47 35 29 23 4 355 169 225 234 236 233 226 214
56 48 61 295 276 301 339 55 28 6 351 349 339 321 308 350 356 351 359 14 24 37 49 49 51 52 52 50 52 57 56 52 48 47 42 32 33 27 4 323 255 239 233 222
74 85 107 312 314 310 316 47 21 356 347 345 337 327 320 350 351 339 343 13 30 43 56 55 52 52 54 48 48 51 47 41 38 43 41 32 23 9 357 350 333 290 255 228
58 85 68 308 305 306 207 103 7 349 342 343 349 2 332 330 333 331 343 23 37 40 47 49 43 53 53 42 41 40 39 38 35 38 36 23 6 354 347 346 337 334 333 299
43 65 32 282 308 360 53 306 320 323 326 332 337 290 293 310 320 324 331 40 53 51 45 35 42 55 47 32 18 11 37 45 34 23 21 17 6 1 359 5 14 18 22 18
49 42 282 300 32 61 243 266 286 301 306 312 309 305 311 319 323 324 324 43 55 45 18 5 34 52 34 6 338 20 52 52 37 23 21 24 26 22 21 26 32 22 19 16
184 209 226 128 167 217 227 266 277 282 294 303 309 312 319 324 328 330 306 330 48 34 348 344 0 36 15 332 332 83 61 53 45 35 32 32 39 34 27 24 27 18 17 13
114 154 187 206 227 243 245 254 267 275 285 294 299 309 319 325 332 337 325 310 349 42 339 329 325 317 321 344 43 104 87 77 61 56 43 36 35 33 35 23 18 16 12 1
186 202 220 266 273 268 272 278 282 286 284 289 298 310 317 323 329 334 330 307 287 236 275 307 299 276 301 32 78 105 124 174 253 333 59 43 44 33 26 28 17 6 353 342
200 202 186 251 270 268 277 293 299 305 312 317 316 319 325 327 328 335 334 321 296 273 267 269 244 246 257 212 120 132 156 221 261 293 307 296 296 23 33 21 16 16 7 356
172 183 189 232 269 268 273 297 314 320 320 325 328 329 332 328 327 331 332 326 297 273 263 256 237 231 235 228 161 144 164 188 224 271 304 301 272 261 290 335 342 4 12 12
168 158 178 217 244 275 288 313 334 340 331 326 326 329 332 330 328 332 325 313 299 279 263 252 241 236 226 209 176 153 159 177 182 227 300 314 318 352 119 167 356 339 337 345
182 174 184 192 159 348 322 331 348 342 333 331 331 337 338 337 332 326 320 318 316 304 275 255 244 244 214 183 164 156 158 174 180 311 10 106 112 84 63 60 51 4 345 341
182 170 153 131 89 5 342 343 340 329 325 323 329 334 333 327 319 318 324 329 331 317 295 268 252 244 191 169 158 156 168 178 163 118 77 103 110 94 78 69 60 40 18 352
154 161 154 153 169 287 302 304 305 308 312 317 319 324 330 334 337 339 338 333 322 307 297 279 265 248 180 166 159 162 165 168 154 108 101 121 130 122 117 103 87 58 17 2
165 166 167 170 186 223 277 301 304 307 304 303 313 327 336 340 337 332 329 327 327 327 321 311 291 231 172 163 156 156 156 154 151 143 125 116 124 130 136 129 114 85 32 31
155 158 167 178 191 201 228 264 285 295 301 309 320 325 323 323 321 320 324 333 340 336 325 323 313 188 167 165 150 146 151 152 150 145 130 121 112 111 124 131 124 108 85 66
157 160 164 182 200 203 230 264 285 298 306 312 319 325 327 325 324 326 328 327 317 303 308 320 329 164 167 162 147 142 149 153 151 146 132 125 127 124 123 129 130 123 110 100
161 165 174 192 215 225 238 263 281 293 303 309 313 315 313 312 318 325 332 326 319 324 329 339 352 202 173 155 142 136 140 145 148 149 145 141 136 132 130 131 133 133 129 124
165 171 185 197 206 223 246 255 270 284 297 305 309 314 319 318 320 323 314 286 299 319 325 319 317 247 186 156 138 138 139 140 145 147 147 148 147 146 146 146 144 144 142 139
168 174 187 199 202 210 230 254 265 265 278 288 296 305 307 300 301 314 317 309 311 315 315 296 300 267 174 152 148 146 145 146 151 155 158 159 160 158 156 156 156 153 147 140
171 178 191 197 188 187 217 243 248 255 265 276 280 290 295 301 304 291 280 300 309 314 306 297 306 221 163 152 154 153 155 155 157 160 156 153 153 152 153 154 155 155 151 145
177 182 186 183 187 204 216 224 238 263 278 282 290 295 289 270 274 293 301 305 314 320 313 308 309 194 159 155 166 168 168 169 166 161 159 157 157 157 157 158 159 157 152 147
178 184 191 195 197 199 198 197 210 236 247 266 281 286 290 293 294 297 300 308 317 322 319 304 292 198 174 171 178 179 175 170 166 164 166 165 165 162 162 165 164 161 158 150
183 186 191 207 215 203 195 195 206 223 222 228 257 275 286 298 305 308 312 314 321 322 319 303 270 232 207 191 184 180 173 167 166 166 167 168 168 170 170 168 166 163 158 155